AirNav   Air Wisconsin Up To $57,000 Bonus
 
 1475 users online  

ID35 High Valley Airport
Cascade, Idaho, USA

GOING TO CASCADE?


FAA INFORMATION EFFECTIVE 01 DECEMBER 2022

Location

FAA Identifier: ID35
Lat/Long: 44-14-20.6090N 116-08-36.4720W
44-14.343483N 116-08.607867W
44.2390581,-116.1434644
(estimated)
Elevation: 4883 ft. / 1488.3 m (surveyed)
Variation: 17E (1985)
From city: 18 miles SW of CASCADE, ID
Time zone: UTC -7 (UTC -6 during Daylight Saving Time)
Zip code: 83611

Airport Operations

Airport use: Private use. Permission required prior to landing
Activation date: 11/1981
Control tower: no
ARTCC: SALT LAKE CITY CENTER
FSS: BOISE FLIGHT SERVICE STATION
Attendance: UNATNDD
Wind indicator: yes
Segmented circle: no

Nearby radio navigation aids

VOR radial/distance  VOR name  Freq  Var
DNJr156/31.8DONNELLY VOR/DME116.2019E

Airport Services

Runway Information

Runway 18/36

Dimensions: 2300 x 50 ft. / 701 x 15 m
Surface: turf/dirt
RUNWAY 18  RUNWAY 36
Traffic pattern: leftleft

Airport Ownership and Management from official FAA records

Ownership: Privately-owned
Owner: DAVID TODD KLIMAS
8410 EAST REGINA CIRCLE
MESA, AZ 85207
Phone 602-513-9800
Manager: TODD KLIMAS
8410 EAST REGINA CIRCLE
MESA, AZ 85207
Phone 602-513-9800

Airport Operational Statistics

Aircraft based on the field: 6
Single engine airplanes: 6
    

Additional Remarks

CAUTION: RWY 18/36 TREES AND BIRD HAZARD ON RWY 18.
FOR CD CTC SALT LAKE ARTCC AT 801-320-2568.

Instrument Procedures

There are no published instrument procedures at ID35.

Some nearby airports with instrument procedures:

S87 - Weiser Municipal Airport (35 nm W)
KMYL - Mc Call Municipal Airport (39 nm N)
KONO - Ontario Municipal Airport (40 nm W)
KBOI - Boise Air Terminal/Gowen Field (41 nm S)
KEUL - Caldwell Executive Airport (42 nm SW)
 
Loc | Ops | Rwys | IFR | FBO | Links
Com | Nav | Svcs | Stats | Notes
Area around ID35 (High Valley Airport)
 
Road maps at: MapQuest Bing Google
 
Aerial photo
WARNING: Photo may not be current or correct
Aerial photo of ID35 (High Valley Airport)
Photo by Alan Wallace
Photo taken 14-May-2007

Do you have a better or more recent aerial photo of High Valley Airport that you would like to share? If so, please send us your photo.

 
Sectional chart

 
Airport distance calculator
Flying to High Valley Airport? Find the distance to fly.

From to ID35

Sunrise and sunset
Times for 08-Dec-2022
 Local
(UTC-7)
 Zulu
(UTC)
Morning civil twilight07:3514:35
Sunrise08:0815:08
Sunset17:0500:05
Evening civil twilight17:3800:38

Current date and time
Zulu (UTC)  08-Dec-2022 14:37:50
Local (UTC-7)  08-Dec-2022 07:37:50
 
METAR
KONO 
40nm W 
081353Z AUTO 26008KT 7SM OVC007 M04/M06 A3033 RMK AO2 SLP301 I1000 T10441061
KBOI 
41nm S 
081353Z 14007KT 10SM CLR M06/M09 A3027 RMK AO2 SLP280 T10611089
KEUL 
43nm SW 
081356Z AUTO 15009KT 10SM SCT005 SCT009 M04/M04 A3031 RMK AO2 SLP291 T10391044 FZRANO
KMAN 
43nm SW 
081415Z AUTO 13006KT 10SM M06/M06 A3031 RMK A01
TAF
KMYL 
39nm N 
081124Z 0812/0912 VRB03KT 6SM BR OVC025 FM081700 18004KT P6SM SCT030 OVC100 FM090000 16005KT P6SM SCT040 OVC070 FM090700 17005KT 1SM -SN BR SCT006 OVC012 AMD NOT SKED
KBOI 
41nm S 
081124Z 0812/0912 12005KT P6SM VCFG SCT005 FM081800 13007KT 6SM BR SCT020 BKN200 FM082000 13010KT P6SM OVC200 FM090400 13010KT 5SM BR OVC040 FM090800 13010KT 1SM -SN BR SCT012 OVC020
KEUL 
43nm SW 
081124Z 0812/0912 VRB03KT P6SM BKN003 OVC010 FM081300 15007KT P6SM SCT003 BKN150 FM090100 15010KT P6SM BKN090 OVC120 FM090600 15012KT 1SM -SN BR SCT008 OVC012
NOTAMs
Click for the latest NOTAMs
NOTAMs are issued by the DoD/FAA and will open in a separate window not controlled by AirNav.

 

 
 

Would you like to see your business listed on this page?

 If your business provides an interesting product or service to pilots, flight crews, aircraft, or users of the High Valley Airport, you should consider listing it here.  To start the listing process, click on the button below
 
Add a business
 

Other Pages about High Valley Airport

Update a link
 
Copyright © AirNav, LLC. All rights reserved. Privacy Policy  Contact